Back to catalog

STARLINK-34329

AliveCommunicationsVLEO
NORAD 64256·PAYLOAD·🇺🇸 United States

Launched Jun 4, 2025 from Vandenberg Space Force Base

Loading…

Next Passes (next 24 hours)

TLE

FreshSource: CelesTrak SupGP

Epoch: Sep 14, 2026, 21:43 UTC

1 64256C 25120A   26257.90534722  .00012883  00000+0  38073-3 0  2579
2 64256  53.1595 312.0943 0001187  82.0064  18.7501 15.34376261    13

Track STARLINK-34329 in real time with AllMySat

Download on the App Store